{"data":{"norad_id":53964,"intl_designator":"2022-125A","name":"STARLINK-4633","alt_names":[],"object_type":"PAYLOAD","status":"ACTIVE","operator":null,"country":"US","launch_date":"2022-10-05","launch_site_code":"AFWTR","launch_vehicle":null,"mission":null,"orbit_class":"UNKNOWN","rcs_meters":null,"size_class":null,"mass_kg":null,"dimensions":null,"purposes":["comms"],"wikipedia_slug":null,"has_3d_model":false,"image_url":null,"decayed_at":null,"tle_current":{"epoch":"2026-05-24T22:57:27.383616Z","epoch_age_seconds":89384,"freshness":"FRESH","line1":"1 53964U 22125A   26144.95656694 -.00000110  00000+0  11165-4 0  9996","line2":"2 53964  53.2169 241.8986 0001320  88.0214 272.0929 15.08835401200831","mean_motion":15.08835401,"eccentricity":0.000132,"inclination_deg":53.2169,"raan_deg":241.8986,"arg_perigee_deg":88.0214,"mean_anomaly_deg":272.0929,"bstar":1.1165e-5,"rev_number":20083,"period_min":95.437845575841,"perigee_km":538.84428423604,"apogee_km":540.67060836986,"semimajor_km":6917.894446303,"source":"CELESTRAK","updated_at":"2026-05-25T13:38:17.616756Z"}}}